Hourly Data Report for August 30, 2017

All times are specified in Local Standard Time (LST). Add 1 hour to adjust for Daylight Saving Time where and when it is observed.

ST. STEPHEN
NEW BRUNSWICK

45°12'36.600" N
67°15'10.300" W
26.10 m
8104935
71607
WSS

Download Data

Hourly Data (August 2017)
Hourly Data Report for August 30, 2017
Temp Definition
°C
Dew Point Temp Definition
°C
Rel Hum Definition
%
Wind Dir Definition
10's deg

Wind Spd Definition
km/h
Visibility Definition
km
Stn Press Definition
kPa
Hmdx Definition


Wind Chill Definition


Weather Definition


TIME
00:00 12.0 10.1 88   0   101.67     LegendNANA
01:00 10.7 9.3 91 9 2   101.58     LegendNANA
02:00 10.8 9.7 93 23 1   101.62     LegendNANA
03:00 10.1 9.0 93 0 1   101.52     LegendNANA
04:00 9.3 8.5 95   0   101.44     LegendNANA
05:00 9.3 8.6 95 2 3   101.40     LegendNANA
06:00 9.3 8.5 95   0   101.38     LegendNANA
07:00 10.0 9.3 95   0   101.36     LegendNANA
08:00 11.5 10.5 94 13 2   101.23     LegendNANA
09:00 14.0 11.7 86   0   101.22     LegendNANA
10:00 15.8 11.9 77 6 3   101.20     LegendNANA
11:00 16.3 11.7 74 11 7   101.16     LegendNANA
12:00 16.1 11.6 75 10 4   101.13     LegendNANA
13:00 16.3 11.4 73 11 2   101.06     LegendNANA
14:00 16.6 12.2 75 10 3   101.00     LegendNANA
15:00 16.5 12.3 76 6 4   100.93     LegendNANA
16:00 16.9 11.5 71 8 2   100.82     LegendNANA
17:00 17.6 10.2 62   0   100.77     LegendNANA
18:00 16.9 11.6 71   0   100.78     LegendNANA
19:00 15.1 11.7 80 10 2   100.72     LegendNANA
20:00 13.7 11.6 87   0   100.68     LegendNANA
21:00 13.0 11.4 90 13 1   100.66     LegendNANA
22:00 12.4 11.3 93   0   100.62     LegendNANA
23:00 12.0 11.0 94   0   100.56     LegendNANA

Notes on Data Quality.

Legend

  • E = Estimated
  • M = Missing
  • NA = Not Available
  • ‡ = Partner data that is not subject to review by the National Climate Archives
Date modified: